Time,TemperatureF,DewpointF,PressureIn,WindDirection,WindDirectionDegrees,WindSpeedMPH,WindSpeedGustMPH,Humidity,HourlyPrecipIn,Conditions,Clouds,dailyrainin,SoftwareType,DateUTC
2013-03-05 00:01:00,36.0,35.0,29.95,SE,145,2.0,3.0,95,0.00,,,0.00,,2013-03-05 08:01:00,
2013-03-05 00:11:00,36.0,35.0,29.95,SE,145,2.0,3.0,95,0.00,,,0.00,,2013-03-05 08:11:00,
2013-03-05 00:21:00,36.0,35.0,29.94,SE,145,1.0,2.0,95,0.00,,,0.00,,2013-03-05 08:21:00,
2013-03-05 00:31:00,36.0,35.0,29.95,SE,145,1.0,2.0,95,0.00,,,0.00,,2013-03-05 08:31:00,
2013-03-05 00:41:00,36.0,35.0,29.95,SE,145,1.0,2.0,95,0.00,,,0.00,,2013-03-05 08:41:00,
2013-03-05 00:52:00,35.0,34.0,29.95,SE,145,0.0,2.0,95,0.00,,,0.00,,2013-03-05 08:52:00,
2013-03-05 01:01:00,35.0,34.0,29.95,SE,145,0.0,2.0,95,0.00,,,0.00,,2013-03-05 09:01:00,
2013-03-05 01:11:00,35.0,34.0,29.95,SE,145,0.0,2.0,95,0.00,,,0.00,,2013-03-05 09:11:00,
2013-03-05 01:21:00,35.0,34.0,29.96,SE,145,0.0,2.0,95,0.00,,,0.00,,2013-03-05 09:21:00,
2013-03-05 01:31:00,35.0,34.0,29.97,SE,145,1.0,2.0,96,0.00,,,0.00,,2013-03-05 09:31:00,
2013-03-05 01:43:00,35.0,34.0,29.97,SE,145,1.0,2.0,96,0.00,,,0.00,,2013-03-05 09:43:00,
2013-03-05 01:52:00,35.0,34.0,29.97,SE,145,1.0,2.0,96,0.00,,,0.00,,2013-03-05 09:52:00,
2013-03-05 02:01:00,36.0,35.0,29.97,SE,146,0.0,2.0,96,0.00,,,0.00,,2013-03-05 10:01:00,
2013-03-05 02:11:00,36.0,35.0,29.97,SE,146,0.0,2.0,96,0.00,,,0.00,,2013-03-05 10:11:00,
2013-03-05 02:21:00,36.0,35.0,29.96,SSE,159,0.0,1.0,97,0.00,,,0.00,,2013-03-05 10:21:00,
2013-03-05 02:32:00,37.0,36.0,29.96,SE,141,1.0,3.0,97,0.00,,,0.00,,2013-03-05 10:32:00,
2013-03-05 02:41:00,37.0,36.0,29.96,SE,141,1.0,3.0,97,0.00,,,0.00,,2013-03-05 10:41:00,
2013-03-05 02:51:00,38.0,37.0,29.95,SE,142,0.0,3.0,97,0.00,,,0.00,,2013-03-05 10:51:00,
2013-03-05 03:01:00,38.0,37.0,29.94,SSE,147,0.0,2.0,97,0.00,,,0.00,,2013-03-05 11:01:00,
2013-03-05 03:11:00,38.0,37.0,29.94,SSE,147,0.0,2.0,97,0.00,,,0.00,,2013-03-05 11:11:00,
2013-03-05 03:21:00,38.0,37.0,29.94,SSE,147,0.0,2.0,97,0.00,,,0.00,,2013-03-05 11:21:00,
2013-03-05 03:32:00,38.0,37.0,29.94,SSE,147,0.0,2.0,97,0.00,,,0.00,,2013-03-05 11:32:00,
2013-03-05 03:41:00,38.0,37.0,29.94,SSE,147,0.0,2.0,97,0.00,,,0.00,,2013-03-05 11:41:00,
2013-03-05 03:52:00,36.0,35.0,29.94,SSE,149,0.0,1.0,95,0.00,,,0.00,,2013-03-05 11:52:00,
2013-03-05 04:02:00,35.0,34.0,29.96,South,171,0.0,2.0,96,0.00,,,0.00,,2013-03-05 12:02:00,
2013-03-05 04:11:00,35.0,34.0,29.96,South,171,0.0,2.0,96,0.00,,,0.00,,2013-03-05 12:11:00,
2013-03-05 04:22:00,36.0,35.0,29.95,ESE,113,1.0,3.0,97,0.00,,,0.00,,2013-03-05 12:22:00,
2013-03-05 04:32:00,37.0,36.0,29.96,SSE,153,0.0,1.0,97,0.00,,,0.00,,2013-03-05 12:32:00,
2013-03-05 04:42:00,37.0,36.0,29.96,SSE,153,0.0,1.0,97,0.00,,,0.00,,2013-03-05 12:42:00,
2013-03-05 04:52:00,38.0,37.0,29.96,SW,229,1.0,3.0,97,0.00,,,0.00,,2013-03-05 12:52:00,
2013-03-05 05:01:00,38.0,37.0,29.95,WSW,243,1.0,3.0,97,0.00,,,0.00,,2013-03-05 13:01:00,
2013-03-05 05:11:00,38.0,37.0,29.95,WSW,243,1.0,3.0,97,0.00,,,0.00,,2013-03-05 13:11:00,
2013-03-05 05:21:00,38.0,37.0,29.95,SW,233,1.0,4.0,97,0.00,,,0.00,,2013-03-05 13:21:00,
2013-03-05 05:31:00,38.0,37.0,29.95,WSW,246,0.0,2.0,97,0.00,,,0.00,,2013-03-05 13:31:00,
2013-03-05 05:42:00,38.0,37.0,29.95,WSW,246,0.0,2.0,97,0.00,,,0.00,,2013-03-05 13:42:00,
2013-03-05 05:52:00,39.0,38.0,29.95,WSW,246,0.0,2.0,97,0.00,,,0.00,,2013-03-05 13:52:00,
2013-03-05 06:02:00,38.0,37.0,29.95,WSW,247,0.0,2.0,97,0.00,,,0.00,,2013-03-05 14:02:00,
2013-03-05 06:11:00,38.0,37.0,29.95,WSW,247,0.0,2.0,97,0.00,,,0.00,,2013-03-05 14:11:00,
2013-03-05 06:21:00,38.0,37.0,29.95,WSW,238,0.0,2.0,97,0.00,,,0.00,,2013-03-05 14:21:00,
2013-03-05 06:31:00,38.0,37.0,29.95,NNE,15,0.0,0.0,97,0.00,,,0.00,,2013-03-05 14:31:00,
2013-03-05 06:42:00,38.0,37.0,29.95,NNE,15,0.0,0.0,97,0.00,,,0.00,,2013-03-05 14:42:00,
2013-03-05 06:52:00,38.0,37.0,29.95,SW,236,0.0,2.0,97,0.00,,,0.00,,2013-03-05 14:52:00,
2013-03-05 07:01:00,39.0,38.0,29.94,South,174,0.0,2.0,96,0.00,,,0.00,,2013-03-05 15:01:00,
2013-03-05 07:11:00,39.0,38.0,29.94,South,174,0.0,2.0,96,0.00,,,0.00,,2013-03-05 15:11:00,
2013-03-05 07:21:00,39.0,38.0,29.95,South,174,0.0,2.0,96,0.00,,,0.00,,2013-03-05 15:21:00,
2013-03-05 07:32:00,39.0,38.0,29.95,WSW,254,2.0,3.0,95,0.00,,,0.00,,2013-03-05 15:32:00,
2013-03-05 07:42:00,39.0,38.0,29.95,WSW,254,2.0,3.0,95,0.00,,,0.00,,2013-03-05 15:42:00,
2013-03-05 07:51:00,39.0,37.0,29.94,South,175,1.0,2.0,94,0.00,,,0.00,,2013-03-05 15:51:00,
2013-03-05 08:01:00,40.0,39.0,29.95,West,276,1.0,3.0,95,0.00,,,0.00,,2013-03-05 16:01:00,
2013-03-05 08:11:00,40.0,39.0,29.95,West,276,1.0,3.0,95,0.00,,,0.00,,2013-03-05 16:11:00,
2013-03-05 08:21:00,40.0,38.0,29.95,West,279,0.0,3.0,94,0.00,,,0.00,,2013-03-05 16:21:00,
2013-03-05 08:32:00,41.0,39.0,29.95,NW,325,1.0,3.0,94,0.00,,,0.00,,2013-03-05 16:32:00,
2013-03-05 08:41:00,41.0,39.0,29.95,NW,325,1.0,3.0,94,0.00,,,0.00,,2013-03-05 16:41:00,
2013-03-05 08:51:00,41.0,39.0,29.95,WNW,283,0.0,2.0,94,0.00,,,0.00,,2013-03-05 16:51:00,
2013-03-05 09:01:00,42.0,40.0,29.95,WNW,298,0.0,3.0,92,0.00,,,0.00,,2013-03-05 17:01:00,
2013-03-05 09:11:00,42.0,40.0,29.95,WNW,298,0.0,3.0,92,0.00,,,0.00,,2013-03-05 17:11:00,
2013-03-05 09:21:00,42.0,40.0,29.95,West,281,1.0,3.0,91,0.00,,,0.00,,2013-03-05 17:21:00,
2013-03-05 09:32:00,42.0,40.0,29.95,NNW,337,2.0,4.0,91,0.00,,,0.00,,2013-03-05 17:32:00,
2013-03-05 09:41:00,42.0,40.0,29.95,NNW,337,2.0,4.0,91,0.00,,,0.00,,2013-03-05 17:41:00,
2013-03-05 09:52:00,43.0,41.0,29.94,NNW,327,1.0,3.0,91,0.00,,,0.00,,2013-03-05 17:52:00,
2013-03-05 10:01:00,44.0,40.0,29.94,SW,234,3.0,6.0,86,0.00,,,0.00,,2013-03-05 18:01:00,
2013-03-05 10:11:00,44.0,40.0,29.94,SW,234,3.0,6.0,86,0.00,,,0.00,,2013-03-05 18:11:00,
2013-03-05 10:21:00,44.0,40.0,29.94,NNW,336,2.0,4.0,86,0.00,,,0.00,,2013-03-05 18:21:00,
2013-03-05 10:32:00,45.0,40.0,29.94,NNW,327,2.0,5.0,84,0.00,,,0.00,,2013-03-05 18:32:00,
2013-03-05 10:41:00,45.0,40.0,29.94,NNW,327,2.0,5.0,84,0.00,,,0.00,,2013-03-05 18:41:00,
2013-03-05 10:52:00,46.0,41.0,29.94,WNW,288,3.0,10.0,83,0.00,,,0.00,,2013-03-05 18:52:00,
2013-03-05 11:01:00,46.0,41.0,29.94,WNW,288,3.0,10.0,83,0.00,,,0.00,,2013-03-05 19:01:00,
2013-03-05 11:11:00,46.0,41.0,29.94,WNW,288,3.0,10.0,83,0.00,,,0.00,,2013-03-05 19:11:00,
2013-03-05 11:21:00,47.0,41.0,29.94,NW,315,4.0,9.0,80,0.00,,,0.00,,2013-03-05 19:21:00,
2013-03-05 11:32:00,47.0,41.0,29.93,WSW,252,3.0,6.0,80,0.00,,,0.00,,2013-03-05 19:32:00,
2013-03-05 11:41:00,47.0,41.0,29.93,WSW,252,3.0,6.0,80,0.00,,,0.00,,2013-03-05 19:41:00,
2013-03-05 11:51:00,47.0,41.0,29.93,South,175,1.0,6.0,80,0.00,,,0.00,,2013-03-05 19:51:00,
2013-03-05 12:01:00,47.0,41.0,29.93,WNW,285,3.0,7.0,80,0.00,,,0.00,,2013-03-05 20:01:00,
2013-03-05 12:11:00,47.0,41.0,29.92,WSW,256,2.0,5.0,81,0.00,,,0.00,,2013-03-05 20:11:00,
2013-03-05 12:21:00,47.0,41.0,29.92,WSW,256,2.0,5.0,81,0.00,,,0.00,,2013-03-05 20:21:00,
2013-03-05 12:32:00,47.0,41.0,29.91,SW,231,1.0,9.0,81,0.00,,,0.00,,2013-03-05 20:32:00,
2013-03-05 12:41:00,47.0,41.0,29.91,SW,231,1.0,9.0,81,0.00,,,0.00,,2013-03-05 20:41:00,
2013-03-05 12:52:00,47.0,41.0,29.91,WNW,298,2.0,5.0,81,0.00,,,0.00,,2013-03-05 20:52:00,
2013-03-05 13:01:00,47.0,41.0,29.90,West,275,4.0,10.0,81,0.00,,,0.00,,2013-03-05 21:01:00,
2013-03-05 13:11:00,47.0,41.0,29.90,West,275,4.0,10.0,81,0.00,,,0.00,,2013-03-05 21:11:00,
2013-03-05 13:21:00,49.0,42.0,29.89,WNW,297,3.0,10.0,78,0.00,,,0.00,,2013-03-05 21:21:00,
2013-03-05 13:31:00,48.0,42.0,29.89,West,269,3.0,6.0,79,0.00,,,0.00,,2013-03-05 21:31:00,
2013-03-05 13:41:00,48.0,42.0,29.89,West,269,3.0,6.0,79,0.00,,,0.00,,2013-03-05 21:41:00,
2013-03-05 13:52:00,48.0,41.0,29.88,East,86,1.0,8.0,78,0.00,,,0.00,,2013-03-05 21:52:00,
2013-03-05 14:01:00,48.0,41.0,29.87,West,261,3.0,6.0,77,0.00,,,0.00,,2013-03-05 22:01:00,
2013-03-05 14:11:00,48.0,41.0,29.87,West,261,3.0,6.0,77,0.00,,,0.00,,2013-03-05 22:11:00,
2013-03-05 14:21:00,49.0,42.0,29.86,NW,325,2.0,10.0,77,0.00,,,0.00,,2013-03-05 22:21:00,
2013-03-05 14:32:00,50.0,42.0,29.86,SE,139,1.0,6.0,74,0.00,,,0.00,,2013-03-05 22:32:00,
2013-03-05 14:41:00,50.0,42.0,29.86,SE,139,1.0,6.0,74,0.00,,,0.00,,2013-03-05 22:41:00,
2013-03-05 14:52:00,49.0,42.0,29.85,NE,44,1.0,7.0,76,0.00,,,0.00,,2013-03-05 22:52:00,
2013-03-05 15:01:00,49.0,42.0,29.85,WNW,299,2.0,7.0,77,0.00,,,0.00,,2013-03-05 23:01:00,
2013-03-05 15:11:00,49.0,42.0,29.85,WNW,299,2.0,7.0,77,0.00,,,0.00,,2013-03-05 23:11:00,
2013-03-05 15:21:00,50.0,42.0,29.85,ENE,58,2.0,7.0,75,0.00,,,0.00,,2013-03-05 23:21:00,
2013-03-05 15:32:00,50.0,42.0,29.84,NNW,348,3.0,10.0,75,0.00,,,0.00,,2013-03-05 23:32:00,
2013-03-05 15:41:00,50.0,42.0,29.84,NNW,348,3.0,10.0,75,0.00,,,0.00,,2013-03-05 23:41:00,
2013-03-05 15:52:00,50.0,42.0,29.84,ESE,123,2.0,6.0,75,0.00,,,0.00,,2013-03-05 23:52:00,
2013-03-05 16:01:00,51.0,42.0,29.83,NE,36,5.0,10.0,71,0.00,,,0.00,,2013-03-06 00:01:00,
2013-03-05 16:11:00,51.0,42.0,29.83,NE,36,5.0,10.0,71,0.00,,,0.00,,2013-03-06 00:11:00,
2013-03-05 16:21:00,50.0,41.0,29.82,NW,309,3.0,8.0,72,0.00,,,0.00,,2013-03-06 00:21:00,
2013-03-05 16:32:00,50.0,42.0,29.81,ENE,75,2.0,8.0,74,0.00,,,0.00,,2013-03-06 00:32:00,
2013-03-05 16:41:00,50.0,42.0,29.81,ENE,75,2.0,8.0,74,0.00,,,0.00,,2013-03-06 00:41:00,
2013-03-05 16:51:00,49.0,42.0,29.80,WSW,257,2.0,9.0,76,0.00,,,0.00,,2013-03-06 00:51:00,
2013-03-05 17:01:00,49.0,42.0,29.79,ENE,76,1.0,5.0,76,0.00,,,0.00,,2013-03-06 01:01:00,
2013-03-05 17:11:00,49.0,42.0,29.79,ENE,76,1.0,5.0,76,0.00,,,0.00,,2013-03-06 01:11:00,
2013-03-05 17:21:00,49.0,42.0,29.79,ENE,63,2.0,5.0,76,0.00,,,0.00,,2013-03-06 01:21:00,
2013-03-05 17:31:00,49.0,42.0,29.78,ENE,69,1.0,5.0,78,0.00,,,0.00,,2013-03-06 01:31:00,
2013-03-05 17:41:00,49.0,42.0,29.78,ENE,69,1.0,5.0,78,0.00,,,0.00,,2013-03-06 01:41:00,
2013-03-05 17:51:00,49.0,42.0,29.78,SE,138,2.0,5.0,78,0.00,,,0.00,,2013-03-06 01:51:00,
2013-03-05 18:01:00,48.0,42.0,29.78,ESE,108,3.0,13.0,79,0.00,,,0.00,,2013-03-06 02:01:00,
2013-03-05 18:11:00,48.0,42.0,29.78,ESE,108,3.0,13.0,79,0.00,,,0.00,,2013-03-06 02:11:00,
2013-03-05 18:21:00,48.0,42.0,29.78,ESE,108,3.0,13.0,79,0.00,,,0.00,,2013-03-06 02:21:00,
2013-03-05 18:31:00,48.0,42.0,29.77,SSE,155,2.0,6.0,79,0.00,,,0.00,,2013-03-06 02:31:00,
2013-03-05 18:42:00,48.0,42.0,29.77,SSE,155,2.0,6.0,79,0.00,,,0.00,,2013-03-06 02:42:00,
2013-03-05 18:52:00,48.0,41.0,29.77,ESE,105,3.0,13.0,78,0.00,,,0.00,,2013-03-06 02:52:00,
2013-03-05 19:01:00,48.0,41.0,29.76,ESE,117,3.0,11.0,78,0.00,,,0.00,,2013-03-06 03:01:00,
2013-03-05 19:11:00,48.0,41.0,29.76,ESE,117,3.0,11.0,78,0.00,,,0.00,,2013-03-06 03:11:00,
2013-03-05 19:21:00,48.0,41.0,29.75,WNW,301,1.0,10.0,78,0.00,,,0.00,,2013-03-06 03:21:00,
2013-03-05 19:31:00,48.0,41.0,29.75,East,97,2.0,11.0,77,0.00,,,0.00,,2013-03-06 03:31:00,
2013-03-05 19:41:00,48.0,41.0,29.75,East,97,2.0,11.0,77,0.00,,,0.00,,2013-03-06 03:41:00,
2013-03-05 19:52:00,47.0,42.0,29.75,West,263,2.0,9.0,83,0.01,,,0.01,,2013-03-06 03:52:00,
2013-03-05 20:01:00,46.0,42.0,29.74,SSE,156,1.0,6.0,87,0.04,,,0.04,,2013-03-06 04:01:00,
2013-03-05 20:11:00,46.0,42.0,29.74,SSE,156,1.0,6.0,87,0.04,,,0.04,,2013-03-06 04:11:00,
2013-03-05 20:21:00,46.0,42.0,29.74,SSE,156,1.0,6.0,87,0.04,,,0.04,,2013-03-06 04:21:00,
2013-03-05 20:32:00,46.0,42.0,29.74,SSE,156,1.0,6.0,87,0.04,,,0.04,,2013-03-06 04:32:00,